Погода в Канске

Погода в Канске : погода сейчас, прогноз погоды и архив. Всё, что Вы хотите узнать о погоде в Канске!

Хотите узнать прогноз погоды в Канске? Тогда Вам сюда: Погода в Канске

Поиск расширенной информации на нашем сайте:

Другие новости

Новости СМИ2

Главная страница сайта

Новости сайта

03.07.2017

Напоминаем, что на нашем специализированном сайте Метеоцентр.Азия вы можете получить высокодетализированные автоматические прогнозы погоды по пунктам России, СНГ и мира в авиационном формате (включающие направление и скорость ветра, видимость, явления погоды, количество и форму облачности, нижнюю и верхнюю границу облачности).


Погода в Канске - сегодня

Время (UTC), дата Ветер
(°,м/с) 
Видим.   Явления Облачность Т
(°С)
Тd
(°С)
f(%) Тe
(°С)
Pmin
(гПа)
dP
(гПа)
Po
(мм)
O2
(г/м3)
Тmin Tmax R s Состояние
почвы
03 18.07.17 070 (В) 20000 м    4/0 верхняя 
[Ci fib]
+22.6 +13.1 55 +28  1009.6  -1.6  740  273           
06 18.07.17 070 (В) 20000 м    9/3 600 м кучево-дожд., средняя, верхняя 
[Cb cap|Ac trans|Ci fib]
+23.5 +14 55 +31  1008.9  -0.6  739  271           
09 18.07.17 110 (В) 20000 м  гроза без осадков  9/5 600 м кучево-дожд., средняя, верхняя 
[Cb cap|Ac trans|Ci fib]
+24.5 +13.2 49 +31  1008.3  -0.6  739  271           
12 18.07.17 050 (СВ) 2{10}  20000 м  гроза без осадков{ливн. осадки}  9/8 600 м кучево-дожд., средняя 
[Cb cap|Ac As]
+16.5 +12.7 78 +22  1009.7  0.8  740  278    +24.9  18     
15 18.07.17 170 (Ю) 20000 м  {гроза}  8/5 600 м кучево-дожд., средняя 
[Cb cap|Ac trans]
+15.5 +13 85 +22  1010.6  0.8  740  280           
18 18.07.17 080 (В) н/о  {гроза}  3/0 средняя 
[Ac trans]
+12.1 +11.3 95 +16  1010.5  -0.3  740  283           
21 18.07.17 040 (СВ) 0500 м  туман  3/0 средняя 
[Ac trans]
+10.5 +9.9 96 +13  1010.8  0.1  740  285           
00 19.07.17 250 (З) 1000 м  дымка{туман}  8/3 300 м средняя, верхняя 
[St|Ac trans|Ci fib]
+12.7 +12.5 99 +19  1010.1  -0.5  740  282  +10        влажная 
03 19.07.17 120 (ЮВ) 20000 м    9/3 600 м кучево-дожд., средняя, верхняя 
[Cb cap|Ac trans|Ci fib]
+18.9 +13.7 72 +27  1009.5  -0.1  740  276           
06 19.07.17 160 (Ю) 20000 м    9/4 600 м кучево-дожд., средняя, верхняя 
[Cb cap|Ac trans|Ci fib]
+21.1 +14.1 64 +29  1008.3  -1  739  273           
09 19.07.17 160 (Ю) 20000 м    8/3 600 м кучево-дожд., верхняя 
[Cb cap|Ci fib]
+23.3 +13.1 53 +29  1006.8  -1.3  738  271           
12 19.07.17 140 (ЮВ) 20000 м    8/4 600 м кучево-дожд., верхняя 
[Cb cap|Ci fib]
+22.1 +13.5 58 +29  1006.1  -0.8  737  272    +23.5       
15 19.07.17 190 (Ю) 20000 м    ясно 
+15.8 +13.3 85 +23  1006.9  0.2  737  278           
18 19.07.17 230 (ЮЗ) н/о    ясно 
+12.8 +11.7 93 +18  1006.9  -0.2  737  281           
21 19.07.17 тихо ()   20000 м    9/0 средняя 
[Ac trans]
+12.6 +11.7 94 +16  1006.8  -0.1  737  282           
00 20.07.17 260 (З) 20000 м    9/0 средняя 
[Ac trans]
+14.9 +13.7 93 +23  1007.1  0.5  737  279  +11.4        влажная 
03 20.07.17 360 (С) 20000 м    9/4 600 м кучево-дожд., средняя 
[Cb cap|Ac trans]
+18.7 +15.1 80 +29  1007.2  0.4  738  275           
06 20.07.17 180 (Ю) 20000 м  {ливн. осадки}  9/3 600 м кучево-дожд., средняя, верхняя 
[Cb cap|Ac trans|Ci fib]
+19.6 +15.2 76 +30  1007.2  0.1  738  274           
09 20.07.17 200 (Ю) 20000 м  гроза, ливневой дождь  9/6 600 м кучево-дожд., средняя 
[Cb cap|Ac trans]
+18 +15.3 84 +29  1008  0.7  738  276           
12 20.07.17 130 (ЮВ) 20000 м  слаб. ливневой дождь{гроза}  8/6 600 м кучево-дожд., средняя 
[Cb cap|Ac trans]
+17.4 +15.2 87 +28  1008.7  0.6  739  277    +20.6  0.6     
15 20.07.17 110 (В) н/о  {ливн. осадки}  8/5 600 м кучево-дожд., средняя 
[Cb cap|Ac trans]
+16.2 +15.2 94 +27  1009.7  0.9  740  278           
18 20.07.17 110 (В) н/о  в посл. час ливневой дождь  9/6 600 м кучево-дожд., средняя 
[Cb cap|Ac trans]
+15.4 +14.5 94 +25  1009.8  740  279           
21 20.07.17 220 (ЮЗ) 20000 м    9/6 600 м кучево-дожд., средняя 
[Cb cap|Ac trans]
+14.6 +13.7 94 +23  1010.1  0.2  740  280           
00 21.07.17 тихо ()   20000 м  в посл. час ливневой дождь  10/8 600 м кучево-дожд., средняя 
[Cb cap|As op]
+15.4 +14.5 94 +24  1010.7  0.7  740  279  +14.5      влажная 
03 21.07.17 270 (З) 20000 м  {ливн. осадки}  9/8 600 м кучево-дожд., средняя 
[Cb cap|Ac trans]
+18.4 +16.4 88 +32  1011.2  0.7  741  276           
Время (UTC), дата Ветер
(°,м/с) 
Видим.   Явления Облачность Т
(°С)
Тd
(°С)
f(%) Тe
(°С)
Pmin
(гПа)
dP
(гПа)
Po
(мм)
O2
(г/м3)
Тmin Tmax R s Состояние
почвы

Для получения пояснительной информации подведите курсор к названию столбца.

ПОГОДА в Канске - архив

Всё, что Вы хотите узнать о погоде в Канске - удобно и подробно!

Выберите нужную дату (начиная с 1 января 2015* года) и нажмите кнопку "Найти".
Будут отображены архивные сводки погоды по пункту Канск, начиная с указанной даты.


Отображать данные в формате CSV (для использования в таблицах Excel)


Внимание! Наш архив погоды предназначен исключительно для личного некоммерческого использования в познавательных целях. Если Вам необходимы официальные справки о состоянии погоды (для производственных, юридических, коммерческих и т.п. целей), обращайтесь в органы Росгидромета.

*Примечание: данная дата относится к архиву по метеостанциям СССР (Россия, СНГ, Балтия).
Архив по метеостанциям Зарубежной Европы и Азии (кроме Китая) хранится 10 дней, по другим регионам земного шара (Китай, Африка, Америка, Австралия, Океания) - 1 день.

Канск - район местоположения метеостанции


Название, широта, долгота, высота метеостанции:
Канск 56.2°ш. 95.6°д. 207 м над ур. моря [Российская Федерация]

Дополнительная информация

В oтличие oт бoльшинства пoгoдных сайтoв мы публикуем пoдрoбную метеoинфoрмацию в детальнoм прoфессиoнальнoм фoрмате.

Характеристики температуры и влажнoсти вoздуха измеряются на высoте 2 м в тени вдали oт зданий и деревьев.
Скoрoсть ветра измеряется на высoте 10 м (на урoвне рoста челoвека скoрoсть ветра ниже в 1.5-2 раза). Если метеoстанция нахoдится в гoрoде или в лесу, тo скoрoсть ветра занижена на 2-4 м/с пo сравнению с oткрытым местoм. Скoрoсть ветра над акватoриями крупных рек и oзёр, а также на вершинах хoлмoв на 2-5 м/с выше, чем в oбычных услoвиях.
Атмoсфернoе давление в разных тoчках местнoсти мoжет значительнo oтличаться oт давления на метеoстанции, в зависимoсти oт услoвий рельефа (при пoдъёме на 10 м давление пoнижается примернo на 1 мм рт.ст.).